GW1109 Weather Reports


Display with metric or nautical units.
time (UTC)temp
F
wind
direction
speed
MPH
gust
MPH
rain 1hr
in
rain 24hr
in
rain mn
in
humidity
%
barometer
mb
20260905031605 65 301 2.0 5.0 0.00 0.03 0.03 75 1008.9
20260905030056 65 300 1.0 4.0 0.00 0.03 0.03 73 1009.2
20260905024604 66 306 1.0 5.0 0.00 0.03 0.03 70 1009.1
20260905023058 67 360 2.0 7.0 0.00 0.03 0.03 68 1009.2
20260905021549 65 327 3.0 7.0 0.00 0.03 0.03 72 1009.2
20260905020059 64 0 0.0 1.0 0.00 0.03 0.03 79 1009.4
20260905014557 65 0 0.0 2.0 0.00 0.03 0.03 79 1009.4
20260905013053 66 184 0.0 2.0 0.00 0.03 0.03 73 1009.3
20260905011549 67 0 0.0 5.0 0.00 0.03 0.03 67 1009.5
20260905010058 66 269 2.0 6.0 0.00 0.03 0.03 72 1009.3
20260905004616 67 263 0.0 3.0 0.00 0.03 0.03 69 1009.4
20260905003055 68 0 0.0 2.0 0.00 0.03 0.03 66 1009.4
20260905001558 68 0 0.0 3.0 0.00 0.03 0.03 65 1009.5
20260905000055 69 306 1.0 3.0 0.00 0.03 0.03 63 1009.3
20260904234550 69 322 2.0 6.0 0.00 0.03 0.03 62 1009.2
20260904233047 70 316 3.0 7.0 0.00 0.03 0.03 62 1009.1
20260904231548 70 323 1.0 4.0 0.00 0.03 0.03 63 1009.2
20260904230128 70 316 1.0 4.0 0.00 0.03 0.03 64 1009.1
20260904224551 71 311 0.0 2.0 0.00 0.03 0.03 62 1009.0
20260904223052 72 0 0.0 3.0 0.00 0.03 0.03 61 1008.8
20260904221601 73 309 1.0 7.0 0.00 0.03 0.03 58 1008.9
20260904220101 73 321 2.0 8.0 0.00 0.03 0.03 58 1009.0
20260904214550 75 335 5.0 13.0 0.00 0.03 0.03 55 1008.8
20260904213051 75 306 5.0 10.0 0.00 0.03 0.03 56 1008.7
20260904211556 74 329 4.0 8.0 0.00 0.03 0.03 58 1008.7
20260904210048 74 298 3.0 11.0 0.00 0.03 0.03 59 1008.7
20260904204559 74 342 6.0 11.0 0.00 0.03 0.03 57 1008.6
20260904203056 74 310 5.0 13.0 0.00 0.03 0.03 58 1008.6
20260904201552 74 341 5.0 11.0 0.00 0.03 0.03 60 1008.6
20260904200048 75 314 3.0 9.0 0.00 0.03 0.03 60 1008.5
20260904194607 76 304 1.0 8.0 0.00 0.03 0.03 58 1008.4
20260904193050 77 321 3.0 10.0 0.00 0.03 0.03 58 1008.4
20260904191546 78 319 3.0 9.0 0.00 0.03 0.03 58 1008.3
20260904190059 79 306 6.0 11.0 0.00 0.03 0.03 55 1008.5
20260904184548 78 291 3.0 8.0 0.00 0.03 0.03 58 1008.8
20260904183114 77 0 3.0 5.0 0.00 0.03 0.03 66 1008.7
20260904181559 75 19 1.0 4.0 0.01 0.03 0.03 75 1008.8
20260904180056 73 346 1.0 5.0 0.03 0.03 0.03 77 1009.0
20260904174548 73 341 2.0 5.0 0.03 0.03 0.03 78 1009.0
20260904173059 72 0 0.0 8.0 0.03 0.03 0.03 79 1008.9
20260904171556 74 284 5.0 9.0 0.02 0.02 0.02 71 1009.2
20260904170053 76 350 4.0 10.0 0.00 0.00 0.00 57 1009.0
20260904164603 78 355 2.0 12.0 0.00 0.00 0.00 53 1009.0
20260904163106 78 307 3.0 7.0 0.00 0.00 0.00 56 1009.0
20260904161555 77 331 2.0 9.0 0.00 0.00 0.00 61 1009.3
20260904160105 78 315 1.0 6.0 0.00 0.00 0.00 59 1009.4
20260904154601 79 298 3.0 7.0 0.00 0.01 0.00 59 1009.4
20260904153107 79 211 1.0 7.0 0.00 0.01 0.00 63 1009.4
20260904151557 78 284 1.0 8.0 0.00 0.01 0.00 68 1009.5
20260904150103 77 297 0.0 8.0 0.00 0.01 0.00 69 1009.6
20260904144550 76 348 0.0 7.0 0.00 0.01 0.00 76 1009.8
20260904143058 76 279 2.0 7.0 0.00 0.01 0.00 86 1009.7
20260904141559 78 314 1.0 6.0 0.00 0.01 0.00 100 1009.9
20260904140106 78 302 2.0 7.0 0.00 0.01 0.00 100 1010.1
20260904134550 77 0 0.0 5.0 0.00 0.01 0.00 100 1010.0
20260904133104 76 296 2.0 6.0 0.00 0.01 0.00 100 1010.1
20260904131548 76 346 2.0 4.0 0.00 0.01 0.00 100 1010.0
20260904130104 75 304 2.0 5.0 0.00 0.01 0.00 100 1010.0
20260904124552 74 360 1.0 4.0 0.00 0.03 0.00 100 1010.1
20260904123047 73 308 3.0 5.0 0.00 0.03 0.00 100 1010.2
20260904121600 74 301 2.0 7.0 0.00 0.03 0.00 100 1010.3
20260904120107 73 310 3.0 5.0 0.00 0.03 0.00 100 1010.2
20260904114549 73 320 1.0 5.0 0.00 0.08 0.00 100 1010.0
20260904113048 73 360 2.0 4.0 0.00 0.08 0.00 100 1009.9
20260904111549 72 317 1.0 3.0 0.00 0.08 0.00 100 1009.9
20260904110058 72 322 1.0 4.0 0.00 0.08 0.00 100 1009.9
20260904104606 71 320 1.0 2.0 0.00 0.09 0.00 100 1009.8
20260904103047 71 269 0.0 2.0 0.00 0.09 0.00 100 1009.6
20260904101547 70 0 0.0 2.0 0.00 0.09 0.00 100 1009.6
20260904100057 71 269 0.0 2.0 0.00 0.09 0.00 100 1009.6
20260904094552 71 269 0.0 3.0 0.00 0.11 0.00 100 1009.7
20260904093049 71 294 1.0 2.0 0.00 0.11 0.00 100 1009.7
20260904091555 71 255 0.0 3.0 0.00 0.11 0.00 100 1009.6
20260904090053 71 308 0.0 2.0 0.00 0.11 0.00 100 1009.8
20260904084547 71 296 2.0 6.0 0.00 0.23 0.00 100 1009.9
20260904083057 71 217 2.0 6.0 0.00 0.23 0.00 100 1009.8
20260904081555 71 0 1.0 7.0 0.00 0.23 0.00 100 1009.5
20260904080047 71 224 1.0 5.0 0.00 0.23 0.00 100 1009.7
20260904074558 71 271 1.0 4.0 0.00 0.23 0.00 100 1009.8
20260904073055 70 216 1.0 4.0 0.00 0.23 0.00 100 1009.8
20260904071548 70 0 1.0 5.0 0.00 0.23 0.00 100 1010.1
20260904070101 70 0 1.0 4.0 0.00 0.23 0.00 100 1010.1
20260904064556 70 275 1.0 6.0 0.00 0.23 0.00 100 1010.2
20260904063052 70 207 1.0 4.0 0.00 0.23 0.00 100 1010.3
20260904061552 70 285 1.0 8.0 0.00 0.23 0.00 100 1010.6
20260904060057 70 251 2.0 7.0 0.00 0.23 0.00 100 1010.9
20260904054603 70 255 1.0 3.0 0.00 0.23 0.00 100 1011.0
20260904053103 70 209 2.0 5.0 0.00 0.23 0.00 100 1011.0
20260904051554 70 217 1.0 4.0 0.00 0.23 0.00 100 1011.2
20260904050055 70 0 1.0 4.0 0.00 0.23 0.00 100 1011.3
20260904044557 70 169 0.0 4.0 0.00 0.23 0.00 100 1011.4
20260904043102 69 0 0.0 0.0 0.00 0.23 0.00 100 1011.5
20260904041554 69 0 0.0 3.0 0.00 0.23 0.00 100 1011.6
20260904040053 69 0 0.0 0.0 0.00 0.23 0.00 100 1011.8
20260904034547 69 0 0.0 0.0 0.00 0.23 0.23 100 1012.0
20260904033056 69 0 0.0 0.0 0.00 0.23 0.23 100 1012.1